Regional Weather Roundup
Issued by NWS

Home | Current Version | Previous Version | Text Only | Print | Product List | Glossary On
Versions: 1 2 3 4 5 6 7 8 9 10 11 12 13 14 15 16 17 18 19 20 21 22 23 24 25 26 27 28 29 30 31 32 33 34 35 36 37 38 39 40 41 42 43 44 45 46 47 48 49 50
000
ASUS44 KOUN 290400
RWROK

WEATHER ROUNDUP FOR OKLAHOMA
NATIONAL WEATHER SERVICE NORMAN OK
1100 PM CDT FRI APR 28 2017

NOTE: "FAIR" INDICATES FEW OR NO CLOUDS BELOW 12,000 FEET WITH NO
      SIGNIFICANT WEATHER AND/OR OBSTRUCTIONS TO VISIBILITY.

OKZ001>007-009>012-014-015-017-290500-
NORTHWEST OKLAHOMA AND THE PANHANDLE

CITY           SKY/WX    TMP DP  RH WIND       PRES   REMARKS
GAGE           LGT RAIN  52  48  86 NE21G30   29.77R
GUYMON         RAIN      46  45  96 NW14      29.87R FOG
$$

OKZ016-021>023-033>039-044-045-290500-
SOUTHWEST OKLAHOMA

CITY           SKY/WX    TMP DP  RH WIND       PRES   REMARKS
LAWTON/REGL    CLOUDY    73  66  78 E12       29.60S
LAWTON/FT SILL CLOUDY    72  66  83 E12       29.60F HAZE
FREDERICK      CLOUDY    73  65  75 E14       29.56R
CLINTON        CLOUDY    66  53  63 N14       29.71R
HOBART         CLOUDY    68  56  65 E13       29.64R
ALTUS AFB      PTCLDY    72  61  68 NE9       29.60R
$$

OKZ018>020-024>031-290500-
CENTRAL OKLAHOMA

CITY           SKY/WX    TMP DP  RH WIND       PRES   REMARKS
OKLAHOMA CITY  CLOUDY    69  62  78 E17       29.67S
OKC/WILEY POST MOCLDY    70  62  76 E15       29.68R
OKC/TINKER AFB CLOUDY    68  62  79 E10       29.67S
GUTHRIE        CLOUDY    68  62  81 NE9       29.69R
$$

OKZ008-013-054>072-290500-
NORTHEAST OKLAHOMA

CITY           SKY/WX    TMP DP  RH WIND       PRES   REMARKS
TULSA          HVY RAIN  67  64  90 NE8       29.71S FOG
TULSA/JONES    TSTM      68  63  84 NE12      29.69F
PONCA CITY     CLOUDY    65  56  72 NE10      29.74S
BARTLESVILLE   CLOUDY    64  57  78 N10       29.76F
MUSKOGEE       LGT RAIN  68  66  93 N8        29.68F
$$

OKZ032-040>043-046>053-073>077-290500-
SOUTH CENTRAL/SOUTHEAST OKLAHOMA

CITY           SKY/WX    TMP DP  RH WIND       PRES   REMARKS
MCALESTER      CLOUDY    74  69  85 CALM      29.67S
$$




USA.gov is the U.S. government's official web portal to all federal, state and local government web resources and services.